STARLINK-1907 (47177 NORAD) Tracking and Keplerian Element Data
This shows tracking and keplerian element data for the satellite.
Feedback or suggestion? Click here.
Element | Value |
Catalog | 47177 |
Name | STARLINK-1907 |
Epoch Orbit | 973 |
Epoch Day | 21.16668981 |
Epoch Year | 2021 |
RAAN | 72.9046 |
Inclination | 53.0548 |
Eccentricity | 0.0001491 |
Argument of Perigee | 47.0948 |
Mean Anonmoly | 13.3469 |
Mean Motion | 15.62748956 |
Decay Rate | -2.93E-06 |
L1 | 1 47177U 20088BH 21021.16668981 -.00000293 00000-0 26343-5 0 9993 |
L2 | 2 47177 53.0548 72.9046 0001491 47.0948 13.3469 15.62748956 9736 |
Live tracking and technical data element details for STARLINK-1907 (NORAD 47177). STARLINK-1907 can be tracked NOW for your location showing map with azimuth and elevation plus other details from your city location.
Track the satellite on the map from your city or location and see movement details for azimuth, elevation, latitude, longitude, range, height, and movement on the map or in text.
IsCatalogInMostPopularTable: catalog: 47177, numindb: 25
Update: records affected: 1
GetName: 47177 STARLINK-1907
Hit Count: updated at: Fri, 22 Jan 2021 16:19:32 GMT